Wind_Speed
21 22 24 23 22 15 14 17 20 23 24 26 29 30 32 31 35 32 23 28 33 32 30 25 24 22 18 26 33 34 37 38 38 37 35 33 30 27 26 25 25 26 28 28 29 29 30 31 31 30 31 30 31 33 36 38 40 42 42 39 36 35 36 36 35 34 34 36 37 36 39 41 40 39 40 42 45 45 42 42 45 43 40 37 36 36
19 22 23 20 19 18 19 21 23 26 26 27 29 30 32 29 31 29 22 28 31 29 28 24 23 20 21 32 34 34 37 38 38 36 32 29 26 25 25 25 26 27 28 27 26 27 27 28 29 29 29 30 30 31 33 35 37 40 42 43 42 39 38 37 36 35 34 35 35 34 36 38 38 39 41 43 45 45 43 44 45 42 41 39 35 39
19 21 20 19 21 22 22 22 22 24 24 25 26 26 27 25 25 25 22 26 28 30 31 26 23 18 23 35 36 34 36 36 35 32 28 26 24 24 25 26 28 28 27 26 24 24 24 24 25 25 25 27 28 30 31 32 33 35 38 42 44 44 43 40 36 34 35 35 33 33 34 35 38 40 41 42 42 43 44 46 45 41 41 40 36 38
16 16 18 21 22 21 21 21 22 24 24 25 24 22 23 21 20 21 23 26 29 33 33 28 26 22 25 33 32 30 31 30 28 27 25 25 24 25 26 28 28 27 25 23 21 20 20 20 20 21 21 22 24 26 28 30 31 32 33 36 40 43 46 45 41 37 36 35 34 35 36 37 40 42 43 43 43 44 43 44 45 43 41 40 37 38
19 18 19 20 19 19 21 22 23 25 25 22 19 20 22 21 20 21 25 29 32 33 28 22 20 19 22 25 25 24 24 24 25 25 25 25 25 26 27 27 25 23 22 20 19 18 17 17 16 16 16 17 18 20 22 25 27 30 31 31 34 38 43 47 47 43 38 37 38 39 40 41 42 42 43 44 45 45 43 42 43 42 42 42 41 40
20 17 18 20 20 22 23 23 24 23 23 20 16 17 19 22 24 25 27 27 27 24 16 11 10 10 15 19 23 25 25 25 24 24 24 24 25 26 26 23 21 19 19 18 18 17 16 15 14 13 14 14 15 16 17 20 22 25 28 29 30 33 37 43 46 45 41 39 39 40 42 43 44 45 46 45 44 43 42 41 41 41 42 43 44 43
17 16 18 22 23 24 25 24 22 21 20 18 16 17 21 25 28 29 27 21 19 18 17 18 14 10 13 19 26 29 27 26 23 22 23 23 24 25 23 20 17 16 16 16 16 16 17 17 16 15 14 14 15 15 16 17 19 21 23 26 28 30 32 37 42 44 44 41 41 42 42 42 43 46 47 45 43 42 42 42 42 43 44 44 45 44
17 20 22 23 23 24 22 17 17 17 15 14 18 25 28 30 29 28 27 22 20 23 28 29 21 16 17 18 24 29 26 23 22 21 21 21 22 22 21 18 16 15 15 15 15 16 17 17 18 18 16 14 14 14 14 15 16 18 20 22 24 26 28 32 37 41 43 42 42 43 43 43 44 46 46 43 41 41 44 45 45 45 46 45 45 45
22 25 23 23 21 20 17 15 15 14 14 19 28 34 33 31 29 28 28 26 22 19 24 27 17 13 14 16 24 26 23 21 22 22 21 20 19 18 17 17 16 16 15 14 15 15 15 16 16 17 16 15 15 14 14 14 14 15 16 18 20 22 24 27 32 37 41 42 42 43 44 44 44 45 47 46 43 43 45 46 45 47 47 47 47 47
27 24 23 23 20 17 15 15 14 13 22 30 35 35 32 32 33 32 28 23 17 11 22 31 19 12 9 15 24 19 16 19 22 22 20 19 17 16 15 15 15 15 14 14 14 13 13 13 13 14 14 15 17 18 18 18 17 17 17 17 18 19 20 22 25 30 36 40 43 45 46 48 48 49 50 49 47 48 49 48 46 48 48 48 49 49
27 25 26 21 15 14 16 17 17 21 31 33 31 31 30 31 30 27 22 16 11 10 22 31 23 17 10 10 22 19 18 21 22 21 19 18 16 15 14 14 14 14 13 14 14 14 14 14 13 14 14 15 16 18 20 21 22 22 21 20 19 19 20 20 20 22 27 34 41 45 47 49 50 50 49 49 48 49 49 49 48 49 49 50 52 51
22 27 26 14 10 16 20 22 25 31 32 28 27 27 24 23 19 16 15 10 7 9 16 18 14 15 12 8 18 23 22 22 21 20 19 17 15 15 15 15 14 14 13 13 14 15 17 18 18 19 19 20 20 20 20 20 22 24 25 25 23 22 21 21 21 21 21 25 32 39 45 48 49 49 49 49 49 49 50 50 49 50 50 51 54 55
22 25 15 7 14 21 21 26 32 30 26 22 23 22 16 14 12 10 9 6 8 12 12 8 6 9 10 9 15 20 20 20 19 18 18 16 15 16 15 15 15 15 16 16 16 17 18 20 21 22 23 24 24 25 25 24 23 24 24 26 27 27 25 24 22 22 21 21 24 29 36 43 47 51 51 51 50 49 50 51 51 51 50 51 54 56
26 20 8 8 19 22 24 31 30 22 21 23 21 17 12 9 8 8 8 8 12 15 15 10 7 8 9 10 17 22 21 21 20 18 17 16 15 16 15 15 15 16 18 19 21 22 23 25 26 27 27 27 28 28 28 29 29 28 27 26 27 28 29 29 28 26 24 24 23 24 27 32 38 45 50 53 54 52 51 51 52 52 53 53 55 56
23 14 12 17 22 27 33 34 27 24 27 26 19 14 14 14 11 10 10 9 12 17 22 18 9 7 8 10 16 21 20 20 19 17 16 15 14 15 15 16 16 18 20 22 23 25 26 27 29 30 33 34 35 35 34 34 33 32 32 31 30 30 29 30 32 32 31 29 27 26 26 27 29 33 39 45 51 55 56 54 54 53 53 53 55 56
19 16 22 27 29 33 36 33 29 28 22 15 15 14 15 17 17 17 17 20 22 19 20 22 16 10 11 15 17 17 15 16 15 14 14 14 14 14 15 17 18 20 23 25 26 28 29 30 30 30 33 35 38 40 41 42 41 39 38 37 35 34 33 31 31 33 35 35 34 32 30 29 29 29 30 33 38 44 50 54 56 57 56 55 55 56
17 25 34 35 34 33 33 35 36 31 20 15 17 17 18 20 22 23 21 24 25 17 14 21 19 11 9 12 15 14 13 14 14 13 13 12 13 15 17 19 22 24 25 27 29 30 32 34 34 33 33 35 37 39 41 43 45 46 46 44 42 40 39 36 33 32 33 35 37 36 35 34 33 32 31 31 31 33 37 42 48 53 57 59 59 58
17 33 44 39 32 34 37 40 40 29 20 19 18 19 23 22 21 21 15 14 15 12 13 20 22 17 8 6 11 11 11 13 13 12 11 13 15 18 20 23 26 28 29 30 31 33 35 36 38 38 37 37 37 37 39 40 41 44 46 48 48 47 45 42 39 36 33 33 34 36 37 38 37 37 36 35 34 33 32 33 36 40 46 52 57 59
18 28 41 40 34 41 44 37 31 20 12 17 22 26 24 16 15 18 13 11 12 11 11 17 24 22 9 3 12 10 9 13 12 11 12 16 19 21 24 26 29 31 32 34 35 35 36 38 40 41 40 40 40 39 38 39 39 40 40 42 44 45 46 46 45 43 39 36 34 33 35 38 39 39 38 38 38 37 36 35 35 35 36 40 46 52
23 19 29 39 40 41 37 26 21 21 20 24 26 25 21 15 16 19 17 16 15 13 12 15 18 11 4 4 10 11 10 11 10 13 16 19 21 23 26 28 31 34 35 36 37 38 38 38 41 42 41 41 41 40 39 39 39 39 38 38 39 40 42 44 45 45 45 44 41 37 34 35 38 40 40 40 40 40 40 39 38 37 37 36 37 40
25 16 23 37 39 33 29 24 25 29 30 28 26 24 20 18 20 20 22 24 19 12 10 11 12 5 3 4 10 10 10 10 12 17 19 20 22 24 27 30 32 33 35 37 38 39 39 39 40 42 41 39 39 39 39 39 39 39 39 39 38 38 39 41 42 43 44 46 46 44 40 36 36 38 40 41 41 41 41 41 41 41 40 39 39 38
23 20 25 34 32 28 34 36 33 32 30 28 27 25 21 19 20 17 17 21 17 13 14 12 12 11 8 12 14 10 9 12 15 19 20 21 24 26 28 31 33 33 35 37 40 41 42 41 42 43 43 41 41 40 40 40 40 40 40 41 40 40 40 40 41 42 43 44 44 45 45 43 39 37 38 40 42 43 43 42 42 43 42 42 42 41
27 27 26 27 27 31 39 38 32 28 24 22 20 19 18 16 16 14 14 20 22 24 27 23 17 13 9 11 12 10 13 17 18 19 20 20 24 29 32 33 34 35 35 37 39 42 44 45 46 47 47 46 46 46 46 46 47 47 46 45 45 44 44 43 42 42 42 43 43 44 44 44 44 41 39 39 41 43 44 44 44 44 44 44 44 44
30 26 23 26 29 33 35 29 23 19 19 20 19 19 18 17 19 23 24 27 26 24 26 21 14 8 5 8 12 14 18 20 19 20 20 19 21 26 32 38 39 38 38 39 41 43 46 49 50 51 52 52 52 53 53 52 53 53 53 52 51 50 49 48 46 44 43 42 43 43 43 43 43 43 43 41 40 41 43 45 46 45 45 46 46 46
26 25 24 24 23 23 23 19 19 22 26 26 26 26 25 25 30 33 31 28 23 22 23 18 11 9 10 12 15 17 21 22 22 22 21 22 24 24 29 36 41 44 44 44 45 47 49 52 53 53 55 56 55 55 55 56 56 57 56 56 56 56 55 53 50 48 46 44 43 43 43 43 43 43 43 43 42 41 41 43 45 46 46 47 47 48
29 29 26 20 15 16 17 18 25 34 34 30 29 30 30 31 35 33 29 23 17 18 23 18 12 17 21 17 16 20 25 28 31 30 26 27 31 31 31 32 36 46 53 52 52 53 54 56 57 56 55 55 55 55 55 56 57 58 59 59 59 58 57 56 53 51 48 46 45 45 44 44 44 43 43 44 44 43 42 42 43 44 46 47 47 48
30 30 27 23 23 26 28 30 35 37 34 31 30 29 28 31 33 30 25 21 18 21 23 19 18 26 27 23 23 26 29 32 35 34 30 31 37 37 35 34 41 52 57 56 57 58 58 58 59 58 55 54 54 54 54 54 54 56 58 60 60 59 57 56 54 53 51 48 46 46 46 46 46 45 44 44 44 44 44 43 42 43 44 45 46 47
29 30 28 26 28 31 33 36 36 33 33 33 27 21 20 22 23 21 17 16 17 17 17 19 24 28 28 27 28 30 30 30 32 33 33 38 43 43 38 39 47 54 53 54 57 57 56 54 52 52 53 53 53 53 51 51 51 52 54 56 58 58 56 54 53 53 52 50 48 47 46 46 46 46 45 45 45 45 45 44 44 43 43 44 45 47
30 30 28 27 32 36 37 35 33 33 34 29 20 16 16 15 14 15 14 14 16 14 16 22 27 29 28 28 28 27 26 28 31 35 40 43 46 49 47 46 51 55 56 55 51 47 44 41 38 39 43 45 46 47 49 49 48 48 49 51 52 53 52 51 50 51 51 50 48 47 46 46 47 47 46 45 45 45 45 45 45 45 44 44 44 45
29 29 28 30 37 40 36 32 32 34 32 25 19 19 16 13 12 13 14 15 17 18 21 27 31 31 29 28 30 31 32 36 38 41 47 52 51 52 54 54 56 58 56 49 41 36 35 34 34 36 39 38 38 42 47 47 46 47 48 48 48 48 48 49 49 49 50 50 48 47 47 46 46 47 46 46 45 45 45 45 45 44 44 44 44 45
27 29 31 34 37 35 31 31 32 32 28 22 18 16 16 17 18 16 14 16 20 23 26 31 31 29 30 34 39 41 41 43 45 49 55 60 58 55 55 57 57 52 44 37 35 35 36 38 41 41 40 37 36 39 42 44 46 48 48 47 47 47 48 49 50 50 50 49 48 46 46 46 45 46 46 46 45 45 45 45 45 44 44 44 44 44
27 29 35 36 31 29 31 32 30 30 28 19 12 15 21 21 19 17 16 19 22 25 29 32 30 30 36 42 42 40 39 43 50 56 59 58 56 53 52 51 48 41 37 37 39 40 41 42 44 43 42 40 40 41 42 44 47 50 50 49 49 50 50 51 52 52 50 49 48 46 46 45 45 44 45 45 45 45 44 44 44 44 44 43 43 43
27 31 37 33 25 27 31 29 28 31 25 11 7 19 24 19 17 20 24 27 28 28 31 33 33 34 38 38 35 36 41 49 53 53 50 49 49 48 46 43 40 38 39 41 41 40 40 42 42 44 45 45 45 45 45 45 46 49 51 52 53 53 53 54 55 54 52 49 47 46 45 44 44 43 43 43 44 44 43 43 43 43 43 43 42 43
32 34 34 27 21 26 29 29 29 25 11 6 14 20 18 17 21 26 32 34 36 40 42 37 35 35 33 31 33 41 48 51 48 44 41 38 38 39 40 38 38 40 42 42 40 39 41 43 44 45 46 46 45 45 46 46 46 49 53 55 57 56 56 57 57 56 55 51 47 45 44 43 43 42 42 42 42 42 42 42 41 42 42 42 41 42
35 32 27 24 22 24 26 27 23 13 9 16 22 19 15 20 27 34 38 38 41 49 50 40 32 31 31 34 41 48 50 47 44 44 41 34 33 38 41 41 42 45 46 43 40 39 40 43 44 43 44 44 45 46 47 49 52 55 57 58 60 59 58 58 57 56 55 51 47 44 42 41 42 42 41 41 40 40 40 40 40 39 39 40 40 40
36 28 24 25 23 21 22 22 17 15 21 22 17 15 20 26 32 36 39 44 49 48 39 29 26 29 36 43 48 49 45 43 46 47 40 37 39 42 44 46 47 47 46 42 39 39 39 41 43 43 44 45 47 49 52 54 57 60 61 60 60 59 59 58 55 54 52 50 46 43 41 40 39 40 40 40 39 38 38 38 38 37 36 37 37 37
35 27 24 24 20 18 22 23 20 21 21 14 11 19 24 27 31 31 34 49 52 33 19 23 32 38 44 47 47 46 43 45 50 47 38 39 45 43 44 48 47 44 43 41 39 39 40 41 43 45 48 50 52 54 56 59 61 63 63 62 60 58 56 55 53 51 49 47 45 43 40 39 38 39 40 39 37 36 35 35 34 33 33 33 34 34
30 25 23 22 20 20 20 20 17 16 13 11 18 25 23 28 39 39 39 46 36 16 19 36 45 45 46 46 45 46 47 48 51 47 41 43 46 44 44 46 43 40 41 40 41 42 43 46 49 52 54 56 58 59 60 61 63 64 63 61 58 55 53 51 49 48 45 43 42 40 39 38 37 38 38 37 35 33 32 31 30 29 30 31 31 32
29 27 22 19 20 19 18 17 13 12 15 19 23 25 25 35 48 46 36 30 24 25 38 48 47 46 46 45 46 46 47 50 53 50 46 46 47 47 46 43 41 40 41 42 45 48 52 56 59 61 62 61 60 60 59 59 60 59 58 56 53 51 49 47 45 44 42 40 39 38 37 36 36 36 36 34 31 30 29 28 27 28 29 30 31 31
27 28 19 15 18 18 18 20 17 16 22 26 24 27 35 44 46 34 20 22 34 46 50 47 46 46 43 43 45 45 46 50 52 51 48 46 46 46 44 43 43 44 46 49 54 58 61 64 64 63 61 58 56 55 54 53 53 52 51 50 48 47 45 44 42 41 39 38 37 37 35 34 34 34 32 30 28 27 26 26 27 27 28 29 30 31
24 24 16 13 20 20 17 20 22 21 22 24 28 36 42 43 35 22 20 32 45 50 49 47 46 44 42 43 46 46 47 48 49 50 50 47 45 44 44 45 47 50 53 58 62 62 61 60 58 56 54 53 51 50 50 49 49 48 47 46 45 43 41 40 40 39 38 37 36 35 33 32 32 30 27 25 25 25 24 25 26 27 28 28 29 30
22 20 14 12 17 20 19 21 23 21 21 27 40 45 36 27 26 29 36 44 44 42 46 48 45 44 46 47 47 48 50 49 49 49 48 45 44 45 47 49 52 55 57 60 59 57 54 52 53 52 51 50 48 47 47 47 46 45 44 42 40 38 37 37 38 38 37 35 33 31 30 28 26 24 23 22 23 23 23 24 26 27 27 28 28 29
18 19 16 12 15 20 22 19 15 17 28 38 43 40 29 26 34 41 43 42 41 42 46 46 43 44 47 49 52 53 52 50 49 49 48 46 46 49 51 52 55 57 56 53 53 53 53 52 51 49 49 48 46 44 44 43 43 42 40 38 36 35 35 35 35 34 33 30 27 25 24 22 21 20 20 21 22 23 23 24 25 26 26 27 27 28
17 20 18 15 17 18 20 21 22 28 36 36 32 33 36 38 40 39 37 38 42 45 45 44 44 44 45 49 54 55 54 53 51 48 46 45 47 51 54 55 57 56 52 49 51 54 54 51 49 47 46 45 44 42 40 39 39 37 35 34 33 32 32 32 30 27 25 22 21 19 18 18 18 19 20 21 22 23 23 23 24 25 25 25 26 26
20 23 21 23 26 22 22 28 34 36 36 34 34 38 42 42 38 34 34 38 43 45 43 41 41 43 45 49 52 54 54 54 51 47 44 44 47 52 55 57 57 54 50 49 51 51 50 48 47 46 44 42 40 39 37 35 35 34 32 31 30 30 29 27 24 21 19 18 17 17 17 17 18 19 20 21 21 22 22 22 23 23 23 24 24 24
24 25 24 28 31 28 29 34 36 34 36 40 41 40 42 43 41 39 39 42 45 45 41 38 40 45 48 49 52 53 51 48 46 45 45 46 50 52 54 55 54 50 48 48 47 47 46 45 44 43 41 39 37 35 34 32 31 31 30 29 28 27 26 23 21 19 18 18 17 17 17 18 18 19 20 20 21 21 21 21 21 21 21 22 22 23
26 26 29 31 29 31 38 43 38 35 39 44 44 42 42 43 43 43 44 45 45 43 40 40 43 47 49 49 50 51 48 45 44 46 47 49 51 51 51 51 50 48 47 46 45 45 44 43 41 40 39 37 35 33 31 30 29 29 28 26 26 25 23 22 20 19 19 19 18 18 18 18 18 19 19 19 20 20 20 21 21 20 20 20 20 21
30 31 34 36 35 36 41 44 41 40 42 44 44 44 44 44 44 45 45 44 43 43 42 43 45 47 48 48 48 48 46 45 45 46 48 49 49 48 48 47 47 46 45 43 43 42 41 40 39 38 37 35 33 31 30 28 28 27 26 25 24 24 22 21 20 20 20 20 19 19 19 18 18 18 18 19 19 19 19 19 19 19 19 19 19 19
33 34 36 39 41 42 44 44 45 47 48 46 43 43 43 44 45 46 45 44 44 43 43 45 46 45 45 45 46 46 46 46 46 45 46 46 46 46 46 45 45 44 43 42 41 39 39 39 38 36 35 33 32 31 29 28 27 26 24 24 23 23 22 21 20 21 21 21 20 20 19 19 18 18 18 18 18 18 18 18 18 17 17 17 18 18
33 36 37 40 42 45 47 46 45 47 49 48 45 43 43 44 44 45 45 45 44 43 45 47 47 44 44 44 44 44 45 45 45 44 43 43 44 44 44 44 43 42 41 40 39 37 36 35 34 34 33 32 31 30 29 27 26 24 23 23 23 23 22 21 20 21 21 21 21 20 19 19 18 18 17 17 17 17 17 17 17 17 16 16 17 17
35 36 37 39 42 46 47 45 44 45 48 49 46 44 44 44 44 45 44 44 44 44 45 46 46 45 44 43 43 43 44 44 44 44 44 43 42 42 42 42 42 41 40 39 38 37 35 33 32 32 31 30 29 29 28 27 26 24 23 22 23 23 23 22 20 20 20 20 20 19 18 18 17 17 17 17 16 16 16 16 17 17 16 15 15 16
Wind_Direction
303 296 293 299 302 294 277 277 278 282 285 284 286 286 287 288 289 295 294 287 293 298 298 300 297 294 282 275 281 286 289 291 292 293 294 291 289 285 277 272 272 275 279 278 269 262 259 257 256 256 255 254 251 249 249 248 248 246 244 242 243 249 252 246 241 241 242 242 243 241 240 241 241 243 245 247 251 252 249 246 250 255 257 259 260 259
302 295 298 305 301 295 291 288 287 288 288 287 289 289 290 288 289 297 291 286 296 298 297 301 298 294 283 283 287 288 288 289 290 291 290 286 283 278 275 277 282 285 286 282 273 265 261 258 255 253 252 253 252 250 249 248 248 249 248 248 245 244 248 249 244 242 242 242 245 246 245 246 247 247 247 247 250 254 254 251 252 255 256 254 256 259
305 301 304 308 305 303 301 298 296 296 294 293 292 289 287 289 296 300 292 293 298 296 299 301 293 283 278 284 288 286 284 283 284 285 282 280 277 276 279 284 288 289 286 281 275 269 265 263 261 258 255 252 251 250 250 249 248 248 249 251 250 246 247 249 246 244 243 242 245 248 249 246 245 247 248 250 252 252 253 254 253 255 255 251 253 257
300 297 300 305 307 305 303 303 301 301 300 299 298 290 283 290 299 297 295 298 297 298 302 300 293 283 276 281 283 279 278 277 279 279 276 274 273 276 282 285 286 284 282 277 273 271 268 268 267 265 263 258 254 252 250 251 250 250 249 250 251 250 249 249 247 244 242 241 243 244 246 246 244 244 244 245 249 248 249 252 250 251 253 251 254 257
302 303 308 310 309 307 306 307 305 305 304 301 296 286 285 294 299 295 297 300 300 303 305 300 295 281 269 275 276 272 272 271 271 270 269 270 273 279 283 284 283 279 277 276 274 273 270 269 270 269 270 266 262 260 256 255 254 253 252 252 252 251 249 250 250 249 244 239 239 239 240 242 242 243 242 241 243 244 246 248 249 250 252 251 253 254
310 317 318 316 315 313 311 310 309 308 307 304 292 284 292 304 308 306 306 306 305 306 302 293 294 276 264 266 269 271 268 262 260 258 260 265 271 278 282 282 281 279 278 279 279 279 278 277 278 278 277 276 271 268 266 263 261 259 257 255 253 252 251 251 251 251 248 241 238 238 239 240 242 243 243 242 242 244 246 247 249 251 250 249 250 251
319 326 324 321 321 317 314 313 311 311 310 304 298 304 311 313 312 310 307 301 294 296 292 281 277 276 267 255 260 267 262 255 253 252 256 261 266 269 274 277 279 283 285 287 289 288 289 290 290 290 287 282 277 274 273 271 269 267 264 261 258 254 252 252 251 250 249 244 239 238 239 240 243 245 245 246 246 246 246 246 248 250 249 249 249 250
328 333 330 327 325 319 317 314 309 311 312 303 310 320 319 315 312 307 303 291 281 289 290 280 265 262 264 244 248 257 250 245 247 250 256 258 260 261 265 272 276 282 287 291 296 297 298 297 296 298 297 293 289 283 281 280 278 275 271 268 265 260 255 252 251 249 248 246 241 240 240 240 241 243 245 248 247 246 247 246 246 247 248 248 248 250
333 334 334 332 327 321 318 314 309 310 313 314 319 321 318 315 311 305 300 289 282 286 284 279 254 241 259 227 229 242 236 236 240 244 254 255 257 260 262 271 276 282 289 291 296 299 300 302 301 302 304 307 308 302 298 297 295 293 287 281 275 269 264 257 252 250 248 245 241 240 241 241 241 240 241 242 242 242 243 243 244 245 247 247 246 249
335 335 339 334 324 321 320 320 317 312 319 320 318 318 317 314 310 305 298 284 277 265 267 276 258 231 261 214 209 221 221 233 241 241 249 251 254 261 263 268 272 276 284 287 292 294 295 300 303 305 308 310 310 307 307 309 308 307 304 299 293 285 278 270 261 254 249 245 242 240 241 241 241 241 241 241 241 241 240 239 240 241 244 245 244 247
337 337 341 335 322 326 327 323 318 315 320 320 316 319 317 312 305 294 285 273 266 251 260 275 263 240 260 195 189 203 214 228 238 240 244 247 251 258 261 267 272 276 281 286 291 295 299 302 304 305 306 306 305 303 302 304 305 304 303 302 300 296 292 286 278 267 257 250 246 244 243 243 245 246 245 245 245 246 244 242 240 240 241 241 242 244
337 334 337 335 326 330 326 322 321 322 323 320 318 321 316 310 299 268 258 245 235 261 265 271 258 237 250 207 192 208 218 227 235 238 244 250 255 262 268 276 282 285 288 291 291 295 301 307 310 311 310 307 306 304 301 299 300 300 299 299 298 297 294 291 288 283 273 261 253 249 247 246 246 246 247 247 248 248 248 247 246 245 244 243 241 242
331 331 335 335 331 330 327 326 326 326 325 321 319 318 309 307 303 271 258 246 251 279 283 271 256 245 253 250 228 223 225 232 237 240 246 254 263 270 276 280 284 288 292 297 297 294 294 296 300 304 308 311 310 309 307 305 302 300 297 296 296 295 294 291 287 284 281 274 265 257 252 249 248 247 246 247 247 248 248 248 248 248 249 248 246 244
335 337 339 326 328 327 323 326 326 322 318 315 311 309 303 299 301 288 281 280 277 282 289 289 275 261 255 250 247 243 238 239 243 247 250 255 261 266 274 279 285 293 298 302 305 305 302 299 299 299 301 303 306 307 308 307 306 304 301 297 294 292 292 291 288 285 281 278 274 268 262 256 253 251 250 249 248 248 248 248 248 248 249 250 250 248
333 327 318 316 320 320 320 325 327 319 315 310 297 289 286 279 277 283 283 287 290 288 289 287 273 261 254 236 243 248 244 241 244 245 247 250 255 263 274 282 290 296 300 303 306 307 308 307 307 306 305 304 304 304 305 306 307 307 306 303 299 294 289 287 286 285 283 280 276 272 269 265 260 257 254 252 251 249 249 249 248 248 248 249 250 250
323 303 307 313 317 320 321 325 328 322 318 309 295 286 275 272 272 275 278 279 282 287 283 275 269 263 249 239 241 243 237 235 238 242 249 254 261 271 281 288 296 301 304 306 307 309 309 308 308 310 310 309 307 306 306 306 306 306 307 305 303 300 296 290 285 281 280 280 280 276 271 268 266 263 260 257 255 254 251 250 249 249 249 249 249 250
318 305 312 319 320 322 323 324 325 320 310 299 297 288 277 279 278 275 279 279 277 277 271 270 271 256 230 234 239 236 234 238 241 244 255 270 279 288 296 299 303 307 309 310 311 313 313 312 311 312 313 313 311 310 309 308 307 306 306 305 303 302 301 298 293 285 278 276 277 279 276 272 268 266 266 263 261 260 257 254 252 250 250 250 249 249
314 308 316 323 320 321 324 323 323 322 305 287 286 290 292 290 277 267 272 280 278 276 273 276 276 268 252 211 209 220 235 241 246 254 270 290 297 302 309 311 313 314 314 316 317 318 319 318 315 315 316 316 313 313 311 309 307 305 304 303 302 301 300 299 298 293 286 278 274 275 276 277 275 270 268 267 265 263 262 260 258 254 252 251 250 249
316 306 314 322 320 321 326 325 325 332 317 291 292 298 298 290 274 270 272 282 284 279 277 279 279 283 303 132 168 185 226 239 253 278 293 304 309 314 317 319 322 322 322 323 323 323 325 324 322 320 320 319 317 317 314 311 309 306 304 302 300 299 298 297 296 295 294 289 283 276 272 273 275 275 273 270 268 267 265 263 262 260 257 254 252 251
325 305 304 318 322 321 324 324 318 320 319 309 302 298 287 266 269 277 276 282 286 283 285 283 279 287 40 116 183 193 228 249 273 295 306 315 319 323 324 326 328 328 328 327 326 326 327 327 326 322 322 323 321 320 318 315 313 310 308 304 300 297 295 293 292 292 292 292 291 286 278 271 269 271 272 272 271 269 268 267 265 262 261 260 257 255
327 304 289 309 320 316 314 317 310 308 310 306 297 293 285 271 276 282 278 280 281 277 286 287 283 305 57 269 250 230 246 276 299 308 317 322 325 328 328 327 329 330 330 329 327 326 324 325 324 321 320 322 323 321 320 318 316 314 312 309 305 301 296 293 290 288 288 288 289 289 286 280 271 267 267 269 270 270 269 268 267 266 263 262 260 259
323 310 294 302 310 306 307 314 310 303 304 303 297 292 287 285 293 294 282 287 294 297 303 300 295 304 295 273 270 260 275 304 318 322 325 325 326 328 327 326 326 326 328 328 327 326 323 322 321 319 317 318 319 319 320 320 320 319 317 315 313 309 304 299 294 289 286 285 285 286 286 285 281 274 267 264 265 266 266 266 266 266 266 265 263 261
324 314 297 292 296 300 307 313 308 302 306 310 305 297 293 297 311 311 299 306 310 305 303 300 294 295 280 271 282 290 308 323 331 331 329 330 331 327 325 325 324 323 324 325 326 325 324 322 320 318 317 317 318 317 318 319 320 321 321 319 318 315 311 306 301 295 289 285 283 283 283 284 283 280 274 267 263 262 263 263 263 263 264 264 264 263
327 319 303 296 298 301 307 308 303 310 326 324 317 316 310 307 316 316 312 311 304 296 299 296 290 293 288 300 313 319 324 330 335 333 330 332 334 328 324 321 320 319 319 319 321 322 322 322 321 320 318 318 319 318 317 318 319 320 321 321 320 318 315 310 305 301 296 290 286 283 282 282 282 281 279 274 268 264 262 261 262 262 262 261 262 262
323 319 314 307 304 305 309 312 313 321 325 318 314 317 316 314 318 319 319 314 296 290 299 293 288 325 340 334 327 322 323 323 322 323 324 325 326 327 325 321 318 318 317 316 317 318 320 320 320 320 318 318 318 317 317 317 317 318 319 319 319 317 315 312 306 301 298 294 290 286 283 281 281 280 280 278 274 269 265 262 261 261 261 261 260 260
321 319 315 307 303 309 312 315 319 319 317 314 313 314 312 315 319 319 317 310 297 307 314 303 302 325 331 333 328 319 317 314 312 314 317 320 321 323 324 323 320 319 318 316 315 316 317 318 318 318 317 316 316 316 316 316 316 316 316 316 316 315 313 311 306 300 296 294 291 288 285 283 281 280 279 278 277 274 270 266 263 261 260 260 260 260
324 316 310 301 296 301 306 310 315 316 314 316 320 317 313 312 314 315 313 309 316 323 315 306 314 321 322 323 321 316 313 311 311 313 314 315 316 319 322 321 319 319 318 317 317 317 318 318 318 318 317 316 316 315 316 315 315 314 314 313 312 311 310 308 304 298 294 292 290 288 285 284 281 280 278 277 277 276 274 271 267 264 262 260 259 259
326 314 313 310 301 301 307 311 315 317 316 321 326 324 323 323 323 327 325 323 330 323 305 308 318 319 319 319 314 311 311 314 317 317 317 316 315 318 321 320 319 320 319 319 320 320 320 320 319 319 319 318 317 316 315 314 313 313 312 311 310 308 306 304 301 297 293 290 289 287 286 284 282 280 278 277 276 275 275 273 271 268 265 263 261 259
327 319 320 318 311 311 313 313 317 319 319 323 324 319 326 340 348 347 334 329 335 326 315 319 317 313 314 311 306 307 314 321 321 317 317 318 317 319 320 319 319 319 318 319 320 319 319 318 315 315 317 316 315 313 312 312 311 312 312 311 309 308 306 304 301 297 293 289 288 287 286 283 281 280 278 277 275 275 274 273 272 270 268 265 263 261
327 322 322 320 316 315 315 316 319 321 322 321 312 307 315 329 342 342 330 327 331 324 319 321 317 312 310 303 298 301 303 305 307 309 313 316 317 318 318 317 317 317 316 318 318 316 313 311 308 308 311 310 307 307 309 310 310 311 311 310 309 309 308 307 304 301 296 291 288 287 286 283 281 279 278 276 275 274 274 273 271 271 269 267 264 262
328 324 321 323 318 313 316 320 321 324 325 314 300 304 318 327 334 338 333 331 330 325 325 325 317 308 308 307 306 305 301 301 305 309 313 315 315 315 315 316 316 314 313 314 314 312 310 310 310 309 310 307 303 303 305 308 309 310 310 310 309 309 309 309 307 304 300 295 291 288 286 283 281 279 278 276 275 274 274 273 272 270 269 267 265 263
330 326 324 325 317 310 319 324 324 328 322 301 292 317 326 333 341 338 331 330 331 329 327 323 314 307 311 313 310 307 306 308 311 312 313 313 313 313 314 314 313 311 308 308 310 311 311 313 311 308 306 303 300 301 302 303 305 305 307 308 308 308 308 309 308 306 303 299 295 292 288 284 281 279 277 276 275 274 274 273 273 271 269 267 265 263
335 332 330 328 316 309 320 328 330 329 319 297 316 324 319 326 332 324 321 323 327 329 325 316 309 305 304 303 302 304 308 311 313 313 313 313 313 313 313 311 307 305 307 308 310 310 311 312 310 307 305 302 300 299 299 299 300 302 304 305 305 305 307 308 307 306 304 301 297 294 290 286 282 279 278 276 275 275 274 274 273 272 270 268 266 265
338 339 335 331 316 310 322 332 330 327 320 314 319 312 311 328 333 329 326 324 325 328 326 317 307 300 294 295 302 308 310 312 312 311 312 313 314 315 313 309 305 306 309 310 309 309 310 310 309 308 307 304 301 300 300 299 299 301 303 303 302 303 304 305 305 304 303 301 297 293 290 286 284 282 279 277 276 275 275 274 273 272 271 270 268 267
342 341 335 332 322 313 324 334 332 327 322 314 305 295 303 321 324 323 320 317 319 323 323 317 307 300 296 297 304 308 310 311 309 309 311 314 316 316 313 310 310 309 309 309 307 307 308 309 308 308 307 306 305 304 302 300 300 302 303 302 301 301 301 301 301 301 300 299 295 292 288 285 284 283 280 278 277 276 276 275 273 272 271 270 270 269
344 344 336 333 327 323 331 334 327 316 313 309 296 293 307 315 320 321 316 314 318 321 319 312 301 297 299 303 308 311 312 310 308 310 311 311 313 314 313 312 312 310 307 305 304 305 307 308 309 310 309 307 306 305 303 302 302 302 301 301 301 300 299 299 299 299 299 297 295 293 289 286 285 283 281 279 278 277 275 274 273 271 270 270 270 270
346 346 341 336 332 331 330 323 316 313 311 306 303 313 322 328 331 327 316 317 322 322 313 307 304 303 308 313 315 316 316 312 311 312 313 312 313 314 313 312 312 309 304 302 300 301 303 304 305 306 305 303 302 302 302 301 300 300 301 301 301 300 299 299 299 298 297 295 294 293 290 288 287 284 281 280 278 276 274 272 270 269 268 269 269 270
345 344 339 333 328 329 326 320 318 316 311 306 307 312 320 327 328 325 316 315 319 307 298 310 313 313 316 318 318 318 317 315 312 312 314 314 313 314 313 311 309 306 303 300 298 298 299 301 302 303 302 301 300 299 299 298 298 299 300 300 300 300 300 299 299 298 296 294 293 291 290 289 287 284 282 280 278 275 272 269 267 266 267 268 268 268
341 341 339 331 328 330 326 318 313 309 308 306 305 308 311 316 322 324 315 308 306 305 311 318 319 317 317 317 318 318 317 315 313 312 314 314 314 314 312 310 307 303 300 298 297 298 300 301 302 302 301 300 299 297 298 298 298 298 299 299 300 301 301 301 300 298 296 295 293 291 290 289 286 283 282 279 276 272 269 267 266 266 268 268 269 269
336 338 339 333 329 328 320 311 303 300 304 303 301 307 312 317 324 324 308 301 312 317 320 321 318 315 316 316 317 316 314 313 311 310 311 312 312 312 309 307 305 303 300 299 298 299 301 302 303 303 302 302 301 301 301 300 300 300 301 301 302 302 303 302 300 299 298 296 294 292 290 288 285 284 281 277 273 269 268 268 268 269 270 270 271 271
331 333 334 329 327 325 317 306 302 302 303 301 306 314 319 323 326 318 303 312 317 318 319 318 316 315 315 314 314 312 309 307 305 305 307 308 310 309 305 303 303 302 302 301 301 302 303 304 304 304 305 306 306 305 305 304 304 303 303 303 303 304 303 302 301 301 299 297 294 291 289 287 287 285 281 276 271 268 268 270 271 272 272 272 272 272
325 325 326 324 323 322 313 302 299 303 307 310 316 323 328 329 321 312 312 316 316 313 315 316 316 315 314 313 312 311 308 306 304 304 304 306 306 304 302 302 304 306 306 305 306 308 310 309 307 307 308 309 309 308 308 307 306 306 305 305 305 305 304 303 302 301 299 297 295 291 289 288 287 285 280 276 273 273 273 275 275 275 274 274 273 273
319 320 323 321 322 321 314 303 296 304 315 320 323 325 324 317 315 315 316 315 313 312 314 316 316 315 315 315 315 315 314 312 309 306 306 306 303 301 302 305 309 310 311 310 310 313 315 313 311 310 311 312 312 312 310 308 307 307 307 307 307 306 305 304 304 302 301 300 297 293 290 287 285 282 279 278 277 278 279 279 279 278 278 277 276 275
316 321 320 312 316 315 301 296 304 312 317 320 319 314 311 313 316 316 312 309 310 314 316 315 315 316 315 315 316 317 319 318 315 311 309 306 302 302 306 310 311 311 311 309 309 312 314 314 313 313 314 315 315 314 312 310 309 309 309 309 309 308 308 308 307 306 305 303 300 296 292 288 285 282 281 281 281 282 282 281 281 281 280 279 278 276
319 322 315 309 313 305 283 289 306 314 317 317 314 312 316 321 322 316 309 308 311 316 318 314 311 313 314 314 315 317 318 317 317 315 311 306 303 305 309 311 312 312 311 309 309 312 313 314 315 316 317 317 316 315 314 312 310 310 310 310 310 310 311 312 312 311 309 306 303 299 295 292 290 288 287 287 286 286 286 285 284 283 281 280 278 277
319 318 311 312 316 308 299 308 316 317 316 318 320 322 325 328 326 321 317 315 316 319 319 312 308 311 313 313 314 317 318 318 317 315 312 309 308 309 311 312 314 315 315 314 314 314 315 316 317 318 318 318 318 316 315 314 312 311 310 311 312 313 314 314 314 313 310 306 304 301 298 296 295 294 293 292 292 291 290 289 287 285 283 281 279 278
322 321 316 318 317 309 314 326 328 319 317 323 327 329 330 328 326 324 321 320 321 322 320 314 311 314 316 315 316 319 320 319 317 315 313 312 313 314 315 315 316 317 318 318 318 318 318 319 319 319 319 320 319 318 316 314 312 310 310 312 313 314 315 315 314 311 308 306 304 301 299 298 297 296 295 294 294 294 293 292 291 289 286 283 281 279
328 327 322 323 320 315 320 330 329 322 322 329 333 332 331 327 324 323 322 322 324 323 319 317 317 318 318 318 319 321 321 321 319 318 317 317 318 319 319 319 319 319 320 320 320 320 320 321 320 320 321 321 320 319 316 314 311 310 310 312 314 315 315 314 313 310 307 306 304 302 301 300 298 297 296 295 295 294 293 292 292 291 290 287 284 281
328 327 326 327 325 323 327 332 330 326 328 333 334 331 329 327 325 324 325 326 326 324 321 321 322 322 321 321 321 322 322 322 321 320 319 321 321 321 322 322 322 322 322 322 322 322 322 322 322 321 321 321 321 319 316 314 312 311 312 313 314 314 314 313 311 309 307 306 306 305 304 303 301 300 298 296 296 295 294 292 291 290 291 290 287 285
329 329 330 328 325 326 331 334 332 327 327 331 333 331 329 328 326 327 328 327 327 327 325 324 324 324 324 324 323 323 322 322 322 322 322 323 323 324 325 326 325 325 325 324 324 324 324 323 322 322 322 322 320 318 316 314 313 312 313 315 314 314 313 312 311 309 308 307 307 307 306 305 304 302 301 299 298 297 295 294 293 292 292 291 289 288
332 333 333 330 326 327 332 332 329 324 324 328 331 329 329 329 329 329 329 329 329 328 326 325 325 326 326 326 325 324 323 322 323 324 323 324 325 327 328 328 328 327 326 325 325 326 325 325 324 323 323 322 321 319 317 314 313 313 313 314 314 313 312 311 311 310 309 308 309 309 307 307 306 305 304 302 301 300 298 296 296 296 295 293 292 291
Height
3100 3098 3097 3096 3096 3096 3095 3093 3091 3089 3088 3086 3084 3081 3079 3077 3073 3073 3075 3069 3067 3067 3064 3064 3063 3062 3061 3056 3053 3051 3048 3047 3045 3044 3044 3042 3041 3041 3040 3038 3038 3037 3036 3035 3033 3033 3032 3031 3031 3031 3030 3031 3031 3031 3031 3031 3031 3031 3031 3032 3033 3034 3033 3035 3037 3039 3040 3040 3041 3042 3043 3044 3047 3050 3051 3050 3050 3052 3054 3055 3055 3056 3056 3057 3057 3058
3098 3096 3095 3095 3094 3093 3092 3091 3089 3086 3085 3083 3081 3078 3076 3075 3071 3071 3071 3067 3065 3064 3061 3061 3059 3058 3056 3050 3049 3048 3045 3043 3041 3041 3040 3039 3039 3037 3037 3036 3034 3033 3032 3031 3030 3029 3028 3028 3027 3027 3026 3026 3026 3026 3026 3027 3027 3028 3028 3027 3027 3028 3027 3029 3032 3034 3035 3036 3037 3038 3040 3043 3045 3046 3046 3046 3047 3049 3050 3051 3051 3051 3052 3053 3054 3054
3097 3094 3093 3093 3092 3090 3089 3087 3086 3084 3082 3080 3079 3077 3074 3072 3070 3068 3067 3064 3063 3060 3058 3058 3056 3055 3052 3046 3045 3044 3042 3040 3038 3038 3037 3036 3036 3035 3034 3032 3031 3030 3029 3028 3027 3026 3025 3024 3024 3023 3023 3022 3022 3022 3022 3023 3023 3023 3024 3024 3024 3025 3023 3024 3027 3029 3030 3032 3034 3035 3037 3038 3039 3039 3040 3041 3043 3044 3045 3045 3046 3047 3049 3050 3050 3051
3096 3094 3092 3091 3090 3088 3086 3085 3083 3081 3079 3078 3076 3075 3072 3071 3071 3067 3064 3062 3060 3057 3055 3054 3052 3051 3047 3041 3040 3039 3038 3037 3036 3035 3034 3033 3033 3031 3030 3029 3028 3027 3026 3025 3024 3023 3022 3022 3021 3020 3019 3019 3018 3019 3019 3019 3019 3019 3020 3020 3021 3022 3021 3020 3021 3022 3025 3027 3029 3031 3032 3032 3032 3032 3034 3036 3036 3037 3039 3041 3042 3043 3045 3047 3047 3047
3094 3093 3091 3089 3088 3086 3084 3083 3081 3079 3077 3075 3075 3073 3071 3070 3069 3066 3063 3060 3056 3053 3051 3050 3048 3044 3041 3038 3036 3036 3034 3033 3033 3032 3031 3031 3029 3028 3026 3025 3024 3023 3023 3022 3021 3020 3020 3019 3018 3018 3017 3016 3016 3015 3015 3015 3015 3015 3016 3016 3017 3018 3018 3017 3016 3017 3019 3020 3022 3024 3026 3026 3026 3026 3027 3029 3030 3031 3034 3036 3038 3040 3042 3043 3044 3044
3092 3091 3089 3087 3086 3084 3083 3081 3079 3077 3075 3074 3073 3071 3070 3068 3066 3063 3061 3058 3054 3051 3049 3048 3046 3041 3038 3036 3034 3033 3031 3029 3029 3029 3028 3027 3026 3024 3023 3022 3021 3020 3019 3019 3018 3017 3017 3016 3015 3015 3015 3014 3013 3013 3012 3012 3011 3011 3011 3012 3012 3013 3013 3013 3013 3013 3014 3015 3016 3017 3019 3020 3021 3021 3021 3023 3026 3029 3031 3033 3034 3036 3037 3038 3038 3039
3091 3090 3088 3087 3085 3082 3081 3079 3077 3075 3073 3072 3070 3069 3068 3066 3063 3060 3059 3057 3053 3050 3047 3047 3045 3040 3037 3034 3030 3029 3027 3025 3026 3025 3024 3024 3023 3022 3021 3019 3018 3017 3016 3015 3015 3014 3013 3013 3012 3011 3011 3011 3011 3010 3009 3009 3008 3008 3008 3007 3008 3008 3008 3008 3008 3009 3010 3010 3010 3011 3012 3014 3015 3016 3016 3019 3022 3025 3026 3027 3028 3029 3030 3031 3032 3034
3090 3089 3087 3085 3083 3081 3079 3077 3075 3074 3073 3070 3069 3067 3065 3063 3061 3058 3057 3055 3051 3048 3044 3042 3042 3039 3035 3032 3028 3025 3024 3023 3023 3022 3021 3021 3020 3019 3018 3017 3016 3015 3014 3013 3012 3011 3010 3009 3008 3007 3007 3007 3007 3007 3006 3006 3005 3005 3004 3003 3003 3003 3003 3003 3003 3004 3005 3006 3006 3006 3006 3007 3008 3009 3011 3013 3016 3018 3018 3019 3020 3021 3022 3024 3026 3028
3089 3087 3085 3083 3081 3079 3078 3077 3075 3074 3072 3069 3067 3065 3062 3060 3057 3055 3054 3051 3049 3047 3039 3036 3039 3035 3030 3028 3025 3022 3022 3021 3020 3019 3019 3018 3017 3016 3016 3015 3014 3012 3011 3010 3009 3008 3007 3006 3005 3004 3003 3002 3002 3002 3002 3002 3002 3001 3001 3000 3000 2999 2999 2999 2999 2999 3000 3001 3002 3002 3002 3002 3003 3003 3004 3005 3008 3009 3010 3011 3013 3014 3016 3018 3019 3020
3087 3085 3084 3081 3080 3078 3077 3076 3075 3073 3071 3068 3065 3062 3059 3057 3054 3052 3050 3047 3047 3045 3035 3031 3035 3031 3024 3023 3022 3022 3021 3018 3017 3017 3016 3016 3015 3014 3013 3012 3011 3010 3009 3008 3007 3006 3005 3004 3003 3002 3001 3001 3000 2999 2998 2998 2998 2998 2997 2997 2996 2996 2996 2995 2995 2995 2995 2996 2997 2997 2997 2997 2997 2998 2998 2999 3001 3001 3002 3004 3005 3006 3008 3010 3012 3013
3085 3083 3082 3080 3078 3078 3077 3075 3074 3073 3070 3066 3063 3060 3057 3054 3050 3048 3046 3045 3045 3039 3030 3026 3029 3028 3022 3019 3019 3019 3018 3015 3014 3014 3013 3013 3013 3012 3011 3010 3009 3008 3007 3006 3005 3004 3003 3002 3002 3001 3000 3000 2999 2997 2997 2996 2995 2995 2994 2994 2994 2994 2993 2992 2992 2991 2991 2992 2992 2993 2993 2993 2992 2993 2994 2995 2996 2997 2997 2998 2999 2999 3001 3003 3004 3006
3083 3081 3080 3079 3078 3077 3076 3074 3073 3070 3067 3065 3062 3059 3056 3051 3048 3045 3043 3044 3041 3032 3025 3024 3024 3024 3021 3017 3016 3015 3014 3013 3012 3011 3011 3010 3010 3009 3008 3007 3006 3005 3004 3004 3003 3002 3001 3000 2999 2998 2998 2997 2996 2995 2995 2995 2993 2992 2991 2991 2991 2991 2991 2990 2989 2988 2988 2988 2988 2989 2989 2988 2988 2988 2989 2989 2990 2992 2992 2993 2993 2994 2995 2996 2997 2999
3083 3080 3079 3077 3077 3076 3075 3072 3070 3068 3065 3063 3061 3060 3056 3051 3048 3044 3040 3038 3034 3027 3024 3023 3022 3022 3018 3015 3014 3013 3012 3012 3010 3009 3009 3008 3007 3006 3005 3004 3004 3003 3002 3001 3000 3000 2999 2998 2997 2996 2995 2993 2992 2992 2991 2991 2990 2990 2989 2988 2988 2987 2988 2987 2987 2986 2985 2985 2984 2984 2984 2984 2984 2984 2984 2984 2985 2986 2987 2988 2988 2989 2990 2990 2991 2993
3080 3078 3077 3077 3076 3075 3074 3073 3070 3067 3065 3063 3062 3060 3057 3053 3050 3045 3039 3033 3028 3024 3024 3023 3021 3019 3016 3013 3012 3010 3010 3009 3008 3007 3007 3006 3005 3004 3003 3002 3001 3000 2999 2998 2997 2996 2995 2994 2993 2992 2992 2991 2990 2989 2988 2987 2986 2986 2985 2985 2985 2985 2984 2983 2983 2982 2982 2981 2981 2980 2979 2979 2979 2979 2979 2979 2980 2980 2981 2982 2982 2983 2984 2984 2985 2986
3083 3079 3077 3077 3076 3074 3072 3072 3070 3067 3064 3061 3060 3060 3057 3055 3052 3046 3039 3033 3027 3024 3023 3022 3019 3015 3013 3011 3008 3007 3007 3006 3006 3005 3005 3004 3003 3002 3001 3000 2999 2998 2997 2996 2995 2993 2991 2990 2989 2988 2987 2985 2984 2983 2983 2983 2982 2982 2981 2981 2981 2981 2982 2981 2979 2978 2977 2977 2978 2977 2975 2974 2973 2973 2973 2973 2974 2974 2975 2976 2976 2977 2978 2978 2979 2980
3086 3081 3078 3076 3076 3074 3071 3069 3069 3066 3063 3059 3058 3058 3055 3053 3051 3044 3038 3034 3029 3024 3021 3019 3015 3011 3009 3008 3006 3005 3004 3004 3003 3003 3003 3002 3001 3000 2999 2998 2997 2996 2994 2993 2992 2990 2989 2987 2987 2986 2984 2982 2980 2979 2977 2976 2976 2976 2976 2976 2975 2975 2975 2975 2975 2974 2974 2974 2973 2972 2970 2969 2969 2968 2968 2968 2967 2968 2968 2969 2970 2971 2972 2972 2973 2974
3086 3079 3075 3075 3072 3071 3070 3067 3066 3065 3061 3058 3056 3054 3052 3050 3048 3043 3036 3033 3030 3023 3016 3014 3012 3008 3008 3006 3004 3004 3003 3002 3002 3001 3000 3000 2999 2998 2997 2995 2994 2993 2992 2991 2989 2987 2986 2984 2983 2982 2982 2980 2978 2977 2975 2973 2971 2970 2969 2969 2969 2968 2967 2967 2968 2969 2970 2970 2969 2967 2965 2963 2963 2963 2963 2963 2962 2962 2962 2962 2963 2963 2964 2965 2966 2968
3089 3077 3071 3073 3070 3068 3068 3064 3062 3061 3058 3055 3054 3051 3049 3046 3044 3041 3035 3030 3027 3019 3012 3011 3010 3006 3005 3004 3002 3003 3002 3000 3000 2999 2999 2998 2997 2996 2994 2993 2991 2990 2989 2987 2986 2985 2983 2980 2978 2978 2978 2977 2975 2974 2973 2971 2970 2968 2966 2964 2962 2961 2960 2960 2961 2962 2963 2964 2964 2962 2959 2958 2957 2958 2958 2957 2957 2957 2957 2957 2956 2956 2957 2958 2959 2960
3091 3079 3069 3070 3069 3065 3064 3061 3057 3055 3054 3053 3050 3048 3047 3044 3040 3039 3035 3029 3024 3016 3009 3008 3008 3005 3003 3002 3002 3001 3000 2999 2999 2998 2997 2996 2995 2994 2992 2991 2989 2987 2986 2984 2983 2981 2980 2977 2975 2973 2973 2972 2971 2970 2969 2967 2966 2965 2964 2962 2961 2959 2957 2956 2955 2954 2954 2954 2955 2954 2954 2953 2952 2952 2952 2951 2951 2951 2951 2951 2951 2951 2951 2951 2952 2952
3089 3083 3071 3068 3068 3064 3061 3060 3057 3054 3054 3051 3047 3044 3044 3042 3038 3036 3033 3029 3023 3015 3009 3005 3005 3003 3002 3002 3002 3000 2999 2999 2998 2997 2996 2995 2994 2992 2990 2988 2986 2985 2983 2981 2980 2978 2977 2975 2972 2970 2969 2968 2966 2965 2964 2963 2962 2960 2959 2959 2958 2957 2955 2953 2951 2949 2947 2946 2945 2945 2946 2947 2947 2946 2945 2945 2945 2945 2945 2945 2945 2945 2945 2945 2945 2946
3086 3084 3074 3066 3067 3065 3062 3061 3058 3055 3053 3050 3046 3043 3041 3038 3035 3032 3029 3028 3024 3016 3010 3006 3003 3003 3003 3002 3001 3000 2999 2999 2998 2996 2995 2993 2992 2991 2989 2987 2985 2983 2981 2979 2977 2975 2974 2973 2970 2967 2966 2965 2963 2962 2961 2960 2959 2957 2956 2954 2953 2951 2950 2949 2947 2946 2943 2941 2939 2937 2938 2939 2940 2940 2939 2939 2938 2938 2938 2939 2939 2939 2939 2939 2940 2940
3083 3082 3074 3066 3065 3063 3059 3058 3056 3053 3050 3048 3044 3042 3039 3037 3034 3030 3025 3025 3024 3019 3015 3011 3006 3004 3004 3002 3001 3000 2999 2998 2997 2996 2994 2992 2991 2989 2987 2986 2984 2982 2980 2978 2975 2973 2970 2969 2967 2965 2963 2962 2960 2959 2957 2956 2955 2953 2952 2950 2949 2946 2944 2942 2941 2940 2938 2937 2935 2933 2931 2931 2932 2932 2933 2932 2932 2932 2932 2932 2932 2932 2932 2933 2933 2934
3082 3078 3072 3066 3063 3059 3055 3053 3052 3049 3047 3046 3043 3040 3038 3036 3035 3032 3027 3025 3024 3021 3018 3015 3007 3003 3003 3001 3000 2999 2998 2997 2996 2995 2993 2991 2990 2988 2986 2984 2982 2980 2978 2976 2974 2971 2968 2966 2964 2962 2959 2958 2956 2954 2952 2950 2949 2948 2947 2945 2944 2942 2940 2937 2935 2933 2932 2931 2930 2929 2927 2925 2924 2925 2925 2925 2925 2925 2925 2925 2924 2925 2925 2926 2926 2927
3080 3076 3071 3064 3059 3055 3053 3051 3049 3047 3045 3044 3043 3040 3037 3035 3035 3034 3030 3028 3024 3020 3018 3013 3006 3003 3003 3002 3000 2999 2998 2996 2995 2994 2992 2991 2989 2987 2984 2981 2979 2977 2975 2973 2971 2969 2966 2963 2961 2958 2955 2953 2951 2949 2946 2945 2943 2942 2940 2939 2937 2936 2935 2933 2930 2928 2926 2925 2924 2923 2922 2921 2919 2918 2918 2918 2918 2918 2918 2917 2917 2917 2917 2918 2919 2919
3080 3076 3071 3064 3055 3049 3048 3048 3047 3046 3045 3044 3043 3040 3036 3034 3033 3031 3029 3028 3023 3019 3018 3013 3006 3005 3004 3002 3001 2999 2997 2996 2995 2993 2991 2989 2987 2984 2981 2978 2975 2973 2971 2970 2968 2966 2963 2960 2958 2955 2951 2949 2947 2944 2942 2939 2938 2936 2935 2933 2932 2930 2928 2926 2925 2923 2921 2919 2918 2916 2915 2914 2914 2912 2911 2910 2910 2911 2911 2910 2910 2910 2910 2910 2911 2912
3079 3075 3073 3068 3060 3051 3048 3047 3047 3046 3044 3043 3041 3039 3034 3032 3032 3029 3027 3025 3020 3017 3017 3014 3009 3006 3005 3003 3000 2999 2996 2994 2993 2991 2989 2987 2984 2982 2979 2975 2972 2969 2967 2965 2963 2961 2959 2956 2954 2951 2948 2945 2942 2939 2937 2934 2932 2930 2928 2927 2926 2924 2922 2920 2918 2916 2914 2913 2911 2910 2908 2907 2907 2906 2905 2904 2903 2903 2903 2903 2903 2903 2903 2904 2904 2904
3077 3074 3072 3071 3065 3059 3054 3051 3050 3047 3043 3040 3038 3035 3032 3031 3030 3029 3027 3024 3020 3017 3016 3015 3011 3007 3006 3003 2999 2997 2995 2992 2990 2988 2986 2983 2981 2978 2976 2973 2969 2966 2963 2961 2958 2956 2953 2951 2948 2945 2942 2939 2936 2934 2931 2928 2926 2924 2922 2920 2919 2918 2916 2914 2911 2909 2908 2906 2904 2903 2901 2900 2899 2899 2898 2898 2896 2895 2895 2896 2896 2896 2896 2896 2897 2897
3075 3070 3069 3068 3064 3060 3056 3052 3050 3046 3042 3038 3036 3033 3031 3030 3028 3027 3026 3024 3022 3018 3015 3013 3011 3008 3005 3002 2998 2996 2993 2990 2988 2986 2983 2980 2978 2975 2973 2969 2966 2963 2960 2957 2954 2951 2948 2945 2942 2938 2936 2933 2930 2927 2925 2922 2920 2917 2915 2913 2912 2910 2909 2907 2905 2903 2901 2899 2897 2895 2894 2892 2892 2891 2891 2890 2890 2889 2888 2888 2888 2888 2888 2889 2889 2889
3073 3068 3066 3064 3060 3057 3054 3051 3047 3045 3041 3038 3034 3031 3030 3028 3027 3026 3026 3024 3022 3019 3016 3013 3011 3008 3005 3001 2997 2994 2991 2989 2986 2983 2980 2978 2975 2972 2968 2965 2962 2958 2955 2953 2950 2946 2943 2941 2938 2935 2932 2928 2925 2922 2919 2917 2915 2912 2909 2907 2905 2903 2902 2900 2898 2896 2894 2892 2890 2888 2886 2885 2884 2883 2883 2882 2882 2881 2881 2880 2880 2880 2881 2881 2881 2881
3072 3067 3065 3062 3057 3053 3051 3048 3045 3042 3039 3035 3032 3029 3028 3027 3026 3026 3025 3023 3020 3018 3016 3013 3009 3006 3003 3000 2996 2994 2991 2987 2984 2980 2977 2974 2971 2967 2964 2960 2957 2954 2950 2947 2945 2943 2940 2937 2934 2931 2928 2925 2922 2918 2915 2912 2910 2907 2904 2902 2900 2898 2896 2894 2892 2890 2887 2885 2884 2882 2879 2877 2876 2875 2875 2874 2874 2874 2873 2873 2873 2872 2873 2873 2873 2874
3071 3067 3064 3061 3055 3050 3048 3046 3043 3040 3037 3032 3029 3028 3026 3025 3024 3024 3022 3021 3018 3015 3013 3010 3006 3003 3000 2997 2994 2991 2988 2984 2980 2977 2973 2970 2967 2963 2959 2956 2953 2949 2946 2943 2941 2938 2935 2932 2929 2926 2923 2921 2918 2915 2911 2908 2905 2903 2900 2898 2895 2893 2891 2888 2886 2883 2881 2878 2877 2875 2873 2871 2869 2868 2867 2866 2866 2866 2866 2865 2865 2865 2865 2865 2866 2866
3070 3065 3061 3058 3053 3047 3045 3044 3040 3038 3035 3030 3027 3026 3025 3024 3022 3021 3021 3020 3017 3014 3010 3007 3004 3000 2996 2993 2989 2986 2983 2980 2976 2973 2969 2965 2962 2958 2955 2951 2948 2945 2941 2939 2936 2933 2930 2928 2924 2921 2919 2916 2914 2911 2908 2904 2901 2897 2895 2893 2891 2888 2886 2883 2880 2877 2874 2872 2870 2868 2866 2864 2862 2861 2859 2858 2858 2858 2858 2857 2857 2857 2857 2858 2858 2858
3068 3064 3059 3056 3051 3045 3043 3041 3038 3035 3031 3027 3026 3025 3024 3023 3022 3020 3019 3017 3016 3013 3009 3004 3000 2996 2992 2989 2985 2982 2979 2976 2973 2969 2965 2960 2956 2953 2951 2948 2944 2940 2937 2934 2932 2929 2926 2923 2921 2917 2914 2911 2909 2906 2903 2900 2897 2892 2890 2887 2885 2883 2880 2877 2874 2870 2867 2866 2863 2861 2859 2857 2855 2854 2853 2851 2851 2850 2850 2850 2849 2849 2849 2850 2850 2851
3066 3063 3058 3055 3051 3044 3041 3040 3037 3032 3029 3027 3027 3025 3023 3022 3020 3018 3016 3014 3012 3010 3007 3001 2996 2993 2990 2987 2983 2979 2976 2972 2969 2965 2962 2957 2953 2949 2946 2944 2940 2936 2933 2930 2927 2924 2922 2919 2916 2913 2909 2906 2903 2900 2898 2895 2892 2888 2885 2882 2879 2877 2874 2871 2867 2864 2861 2859 2856 2854 2852 2849 2848 2847 2846 2845 2844 2843 2843 2842 2842 2842 2841 2842 2842 2843
3063 3060 3057 3055 3051 3045 3041 3039 3035 3031 3029 3028 3026 3024 3023 3022 3019 3015 3013 3011 3009 3006 3002 2997 2993 2990 2987 2984 2981 2976 2972 2968 2964 2960 2957 2955 2952 2947 2942 2938 2936 2932 2929 2926 2922 2919 2917 2913 2910 2907 2904 2901 2898 2895 2893 2890 2886 2882 2879 2875 2872 2870 2868 2864 2861 2857 2854 2851 2849 2847 2845 2843 2841 2840 2838 2837 2837 2836 2836 2835 2835 2835 2834 2834 2835 2835
3061 3059 3056 3053 3050 3045 3042 3040 3037 3032 3028 3026 3024 3023 3022 3020 3016 3012 3006 3005 3005 3002 2997 2993 2990 2987 2984 2980 2976 2972 2967 2962 2957 2954 2953 2951 2948 2943 2938 2934 2931 2927 2923 2920 2917 2914 2911 2908 2904 2901 2899 2896 2892 2889 2886 2883 2879 2875 2871 2868 2865 2862 2859 2856 2853 2850 2847 2843 2841 2839 2838 2836 2834 2833 2831 2830 2830 2830 2829 2829 2828 2828 2828 2828 2828 2828
3060 3058 3055 3052 3049 3046 3043 3040 3037 3033 3029 3025 3023 3022 3020 3017 3015 3012 3004 2999 2999 2998 2994 2990 2986 2983 2979 2975 2970 2966 2962 2956 2950 2949 2949 2946 2942 2939 2935 2930 2926 2922 2918 2915 2911 2909 2906 2902 2899 2896 2893 2890 2887 2883 2880 2875 2871 2867 2863 2860 2857 2854 2851 2848 2845 2843 2840 2837 2835 2833 2831 2829 2828 2826 2824 2823 2823 2823 2823 2822 2822 2822 2822 2822 2822 2822
3059 3057 3055 3052 3049 3047 3044 3039 3035 3031 3027 3025 3022 3021 3019 3016 3014 3012 3004 2996 2995 2995 2991 2987 2982 2977 2973 2969 2964 2960 2956 2951 2945 2943 2943 2940 2936 2934 2930 2926 2922 2918 2913 2909 2906 2903 2900 2897 2894 2891 2887 2884 2880 2876 2872 2868 2863 2859 2856 2852 2849 2846 2843 2841 2838 2836 2833 2831 2828 2826 2825 2823 2821 2819 2818 2817 2817 2817 2817 2817 2817 2817 2817 2817 2817 2817
3058 3057 3055 3052 3049 3047 3044 3039 3035 3030 3026 3024 3021 3019 3017 3014 3011 3008 3002 2995 2993 2991 2987 2983 2978 2973 2969 2965 2960 2956 2952 2946 2940 2937 2936 2934 2930 2927 2924 2920 2917 2913 2909 2905 2900 2896 2893 2890 2887 2883 2879 2876 2872 2868 2864 2860 2855 2851 2848 2845 2842 2839 2836 2833 2831 2829 2826 2824 2822 2820 2819 2817 2815 2813 2812 2811 2811 2811 2811 2811 2812 2811 2812 2811 2811 2812
3056 3054 3053 3051 3048 3046 3043 3038 3034 3031 3026 3023 3020 3017 3014 3011 3007 3004 2997 2990 2987 2985 2981 2978 2973 2969 2966 2961 2957 2953 2949 2944 2937 2932 2931 2929 2926 2923 2919 2915 2911 2908 2903 2899 2895 2890 2886 2882 2878 2874 2870 2866 2862 2859 2855 2852 2848 2844 2841 2838 2835 2832 2829 2826 2824 2822 2820 2818 2816 2814 2812 2810 2808 2807 2806 2806 2806 2806 2806 2806 2806 2806 2806 2806 2806 2806
3054 3052 3051 3049 3046 3044 3042 3037 3032 3028 3025 3021 3018 3015 3011 3006 3003 3001 2995 2988 2984 2980 2977 2974 2970 2965 2962 2958 2954 2950 2946 2942 2936 2930 2926 2924 2921 2917 2914 2910 2906 2903 2898 2893 2888 2883 2879 2874 2869 2865 2862 2858 2854 2851 2847 2844 2840 2837 2834 2831 2828 2826 2823 2820 2818 2816 2814 2812 2810 2808 2806 2805 2803 2802 2802 2801 2801 2802 2802 2802 2802 2802 2802 2801 2801 2801
3053 3051 3050 3048 3045 3042 3040 3035 3029 3025 3023 3019 3015 3011 3008 3004 3001 2998 2992 2987 2983 2979 2974 2970 2966 2962 2958 2954 2950 2946 2941 2936 2932 2926 2922 2919 2915 2911 2907 2904 2900 2896 2891 2886 2880 2876 2872 2867 2862 2858 2855 2851 2848 2845 2841 2837 2834 2831 2828 2825 2823 2820 2818 2815 2813 2810 2808 2806 2805 2803 2802 2800 2799 2798 2798 2797 2797 2797 2798 2798 2797 2797 2797 2797 2796 2796
3053 3050 3048 3047 3044 3041 3037 3033 3028 3023 3019 3016 3011 3007 3006 3004 2999 2993 2988 2983 2980 2976 2971 2966 2962 2959 2954 2949 2944 2940 2935 2930 2926 2921 2917 2913 2909 2904 2900 2897 2893 2889 2884 2879 2873 2869 2865 2860 2856 2852 2849 2845 2842 2839 2835 2832 2828 2825 2823 2820 2818 2816 2813 2811 2808 2805 2803 2801 2800 2799 2798 2797 2796 2795 2795 2794 2794 2794 2794 2794 2793 2793 2793 2792 2792 2792
3052 3049 3046 3044 3042 3040 3035 3030 3026 3021 3016 3014 3011 3006 3003 3000 2996 2991 2985 2980 2976 2972 2968 2962 2958 2955 2951 2945 2939 2934 2929 2924 2920 2916 2911 2907 2903 2898 2894 2891 2887 2882 2877 2873 2868 2864 2860 2855 2850 2847 2844 2840 2837 2833 2830 2827 2823 2820 2818 2816 2814 2811 2809 2806 2804 2801 2799 2798 2796 2795 2795 2794 2793 2793 2792 2792 2791 2791 2791 2791 2790 2789 2789 2788 2787 2787
3051 3048 3045 3042 3040 3038 3033 3027 3022 3018 3014 3012 3009 3004 2999 2994 2991 2988 2983 2977 2972 2968 2964 2959 2955 2951 2947 2942 2935 2929 2924 2919 2914 2910 2906 2902 2897 2893 2889 2885 2880 2875 2871 2867 2862 2858 2854 2850 2845 2842 2839 2836 2833 2829 2826 2823 2819 2816 2814 2812 2810 2808 2805 2803 2801 2798 2797 2795 2794 2793 2792 2792 2791 2790 2789 2789 2788 2788 2787 2787 2786 2785 2785 2784 2784 2783
3048 3046 3043 3040 3036 3032 3028 3024 3020 3016 3011 3008 3005 3001 2995 2990 2986 2983 2978 2973 2968 2964 2960 2956 2951 2946 2942 2937 2930 2925 2920 2915 2910 2905 2901 2897 2892 2889 2884 2879 2874 2870 2865 2861 2857 2853 2849 2845 2841 2837 2834 2831 2829 2825 2822 2819 2816 2813 2811 2809 2807 2804 2802 2800 2798 2796 2795 2793 2792 2791 2790 2789 2788 2787 2786 2786 2785 2784 2783 2783 2782 2782 2781 2781 2780 2780
3046 3043 3040 3036 3033 3027 3021 3017 3015 3011 3007 3003 2999 2995 2991 2986 2982 2979 2974 2969 2964 2959 2955 2952 2947 2941 2936 2931 2926 2920 2915 2911 2906 2901 2897 2892 2887 2883 2879 2874 2869 2864 2860 2856 2852 2848 2844 2840 2837 2833 2830 2827 2825 2822 2819 2816 2813 2811 2808 2806 2804 2802 2800 2798 2796 2794 2793 2791 2790 2789 2788 2787 2786 2784 2783 2782 2781 2781 2780 2779 2778 2778 2778 2777 2777 2776
3044 3041 3036 3032 3029 3023 3017 3013 3011 3007 3003 3000 2995 2989 2985 2981 2977 2974 2969 2964 2959 2955 2950 2946 2942 2936 2931 2926 2921 2915 2910 2906 2902 2897 2892 2887 2882 2878 2873 2869 2864 2860 2856 2852 2848 2844 2840 2836 2833 2830 2826 2823 2821 2818 2816 2813 2811 2808 2806 2804 2802 2800 2798 2796 2794 2792 2790 2789 2788 2787 2786 2784 2783 2782 2781 2780 2779 2778 2777 2776 2775 2775 2774 2774 2773 2773
3040 3037 3033 3028 3022 3017 3014 3011 3006 2999 2995 2995 2992 2987 2982 2977 2972 2968 2964 2959 2954 2950 2945 2941 2937 2933 2927 2922 2917 2911 2906 2902 2898 2893 2888 2883 2879 2874 2869 2865 2860 2856 2852 2848 2844 2841 2837 2833 2829 2826 2823 2820 2817 2815 2813 2810 2808 2806 2804 2801 2799 2797 2795 2794 2792 2790 2788 2787 2785 2784 2783 2782 2780 2779 2778 2777 2776 2775 2774 2773 2772 2772 2771 2770 2770 2769
3037 3034 3030 3024 3018 3012 3009 3006 3002 2994 2989 2987 2986 2983 2978 2973 2968 2962 2958 2954 2949 2945 2940 2935 2931 2927 2923 2918 2913 2908 2903 2898 2894 2889 2884 2880 2875 2870 2866 2861 2857 2852 2848 2844 2841 2838 2834 2831 2827 2823 2820 2817 2815 2812 2810 2807 2805 2803 2801 2799 2797 2795 2793 2791 2790 2788 2786 2784 2783 2782 2780 2779 2778 2776 2775 2774 2773 2772 2772 2771 2770 2769 2769 2768 2767 2766
3035 3031 3027 3022 3015 3009 3005 3002 3000 2994 2987 2983 2980 2977 2973 2969 2963 2958 2953 2949 2945 2940 2936 2931 2926 2921 2917 2913 2909 2904 2899 2894 2889 2885 2880 2876 2872 2867 2863 2858 2853 2849 2845 2841 2837 2834 2831 2828 2824 2821 2818 2815 2812 2810 2807 2805 2803 2800 2798 2796 2794 2792 2791 2789 2787 2786 2784 2782 2780 2779 2778 2776 2775 2774 2773 2772 2771 2770 2769 2768 2767 2766 2766 2765 2765 2764